Home   Weather   Gaza   Past weeks

Flag for Palestinian Territories Past Weather in Gaza, Gaza Strip, Palestinian Territories — Yesterday and Last 2 Weeks

Now
77 °F

Sunny.


Feels Like: 78 °F
Forecast: 56 / 78 °F
Wind: 12 mph from Northwest

Location: Ben Gurion International Airport

Current Time: Apr 29, 2017 at 6:46:42 pm

Latest Report: Apr 29, 2017 at 5:50 pm


Visibility: 10 mi

Pressure: 29.86 "Hg

Humidity: 36%

Dew Point: 48 °F

Location of GazaLocation

Past Weather in Gaza — Graph

°F

Gaza Temperature Yesterday

Maximum temperature yesterday: 77 °F (at 12:50 pm)
Minimum temperature yesterday: 57 °F (at 6:50 am)
Average temperature yesterday: 68 °F

High & Low Weather Summary for the Past Weeks

 TemperatureHumidityPressure
High102 °F (Apr 22, 12:20 pm)88% (Apr 16, 11:50 pm)30.12 "Hg (Apr 16, 11:50 pm)
Low54 °F (Apr 17, 4:50 am)8% (Apr 22, 11:20 am)29.65 "Hg (Apr 22, 3:50 pm)
Average68 °F57%29.99 "Hg
* Reported Apr 14 5:20 pm — Apr 29 5:20 pm, Gaza, Weather by CustomWeather, © 2017

Note: Actual official high and low records may vary slightly from our data, if they occured in-between our weather recording intervals... More about our weather records

Advertising

Gaza Weather History for the Previous 24 Hours

Scroll right to see more
 ConditionsComfort  
Time TempWeatherWind HumidityBarometerVisibility
5:20 pm
Sat, Apr 29
77 °FSunny.10 mph36%29.86 "Hg10 mi
4:50 pm77 °FSunny.9 mph36%29.86 "Hg10 mi
3:50 pm79 °FSunny.12 mph34%29.89 "Hg10 mi
3:20 pm77 °FSunny.13 mph39%29.89 "Hg10 mi
2:50 pm79 °FSunny.13 mph37%29.89 "Hg10 mi
2:20 pm79 °FSunny.12 mph34%29.89 "Hg10 mi
1:50 pm79 °FSunny.10 mph34%29.92 "Hg10 mi
1:20 pm77 °FSunny.10 mph36%29.92 "Hg10 mi
12:50 pm79 °FSunny.10 mph37%29.92 "Hg10 mi
12:20 pm77 °FSunny.10 mph36%29.92 "Hg10 mi
11:50 am77 °FPassing clouds.9 mph44%29.92 "HgN/A
11:20 am79 °FSunny.3 mph34%29.95 "Hg10 mi
10:50 am77 °FSunny.3 mph30%29.95 "Hg10 mi
10:20 am73 °FSunny.3 mph50%29.95 "Hg10 mi
9:50 am72 °FSunny.2 mph57%29.95 "Hg10 mi
9:20 am70 °FSunny.2 mph60%29.95 "Hg10 mi
8:50 am68 °FSunny.1 mph64%29.95 "Hg10 mi
8:20 am64 °FSunny.2 mph60%29.95 "Hg10 mi
7:50 am63 °FSunny.2 mph49%29.95 "Hg10 mi
7:20 am59 °FPassing clouds.2 mph55%29.95 "HgN/A
7:05 am57 °FPassing clouds.2 mph59%29.95 "HgN/A
6:50 am57 °FPassing clouds.5 mph51%29.95 "HgN/A
6:35 am57 °FPassing clouds.3 mph59%29.95 "HgN/A
6:20 am57 °FPassing clouds.1 mph63%29.92 "HgN/A
5:50 am57 °FPassing clouds.3 mph63%29.92 "HgN/A
5:35 am57 °FPassing clouds.2 mph67%29.92 "HgN/A
5:20 am57 °FPassing clouds.2 mph72%29.92 "HgN/A
4:50 am57 °FPassing clouds.5 mph72%29.92 "HgN/A
4:20 am59 °FPassing clouds.5 mph68%29.92 "HgN/A
3:50 am57 °FPassing clouds.2 mph77%29.92 "HgN/A
3:20 am57 °FPassing clouds.3 mph82%29.92 "HgN/A
2:50 am57 °FClear.1 mph82%29.92 "Hg10 mi
2:20 am59 °FClear.3 mph82%29.92 "Hg10 mi
1:50 am63 °FClear.5 mph77%29.92 "Hg10 mi
1:20 am61 °FClear.3 mph77%29.92 "Hg10 mi
12:50 am61 °FClear.2 mph77%29.95 "Hg10 mi
11:50 pm
Fri, Apr 28
61 °FClear.1 mph83%29.95 "Hg10 mi
11:20 pm63 °FClear.2 mph77%29.95 "Hg10 mi
10:50 pm64 °FClear.2 mph83%29.95 "Hg10 mi
10:20 pm64 °FClear.2 mph83%29.95 "Hg10 mi
9:50 pm64 °FClear.2 mph83%29.95 "Hg10 mi
8:50 pm66 °FClear.3 mph78%29.95 "Hg10 mi
8:20 pm66 °FClear.6 mph78%29.95 "Hg10 mi
7:50 pm68 °FClear.7 mph69%29.95 "Hg10 mi
7:20 pm68 °FPassing clouds.7 mph69%29.95 "HgN/A
6:50 pm70 °FPassing clouds.7 mph64%29.95 "HgN/A
6:20 pm72 °FPassing clouds.7 mph61%29.92 "HgN/A
Weather by CustomWeather, © 2017

See weather overviewHow to use our weather pages